| time (UTC) | temp C | wind direction | speed KPH | gust KPH | rain 1hr cm | rain 24hr cm | rain mn cm | humidity % | barometer mb |
| 20260505125037 | 17 | 295 | 8.0 | 12.9 | 0.00 | 0.00 | 0.00 | 58 | 1010.6 |
| 20260505124553 | 17 | 280 | 6.4 | 12.9 | 0.00 | 0.00 | 0.00 | 58 | 1010.6 |
| 20260505124035 | 17 | 291 | 6.4 | 12.9 | 0.00 | 0.00 | 0.00 | 58 | 1010.6 |
| 20260505123536 | 17 | 279 | 9.7 | 12.9 | 0.00 | 0.00 | 0.00 | 58 | 1010.5 |
| 20260505123055 | 18 | 277 | 8.0 | 12.9 | 0.00 | 0.00 | 0.00 | 58 | 1010.5 |
| 20260505122533 | 18 | 271 | 8.0 | 14.5 | 0.00 | 0.00 | 0.00 | 57 | 1010.5 |
| 20260505122034 | 18 | 259 | 8.0 | 14.5 | 0.00 | 0.00 | 0.00 | 57 | 1010.4 |
| 20260505121552 | 18 | 257 | 6.4 | 17.7 | 0.00 | 0.00 | 0.00 | 57 | 1010.5 |
| 20260505121034 | 18 | 265 | 8.0 | 20.9 | 0.00 | 0.00 | 0.00 | 56 | 1010.4 |
| 20260505120534 | 18 | 265 | 11.3 | 20.9 | 0.00 | 0.00 | 0.00 | 56 | 1010.4 |
| 20260505120046 | 18 | 261 | 9.7 | 14.5 | 0.00 | 0.00 | 0.00 | 56 | 1010.4 |
| 20260505115535 | 18 | 277 | 8.0 | 12.9 | 0.00 | 0.00 | 0.00 | 55 | 1010.3 |
| 20260505115034 | 18 | 261 | 6.4 | 11.3 | 0.00 | 0.00 | 0.00 | 55 | 1010.4 |
| 20260505114544 | 18 | 275 | 4.8 | 12.9 | 0.00 | 0.00 | 0.00 | 55 | 1010.2 |
| 20260505114036 | 18 | 247 | 8.0 | 12.9 | 0.00 | 0.00 | 0.00 | 54 | 1010.2 |
| 20260505113535 | 18 | 247 | 4.8 | 11.3 | 0.00 | 0.00 | 0.00 | 53 | 1010.2 |
| 20260505113044 | 18 | 242 | 4.8 | 9.7 | 0.00 | 0.00 | 0.00 | 53 | 1010.2 |
| 20260505112537 | 18 | 265 | 3.2 | 6.4 | 0.00 | 0.00 | 0.00 | 52 | 1010.2 |
| 20260505112035 | 18 | 291 | 3.2 | 6.4 | 0.00 | 0.00 | 0.00 | 52 | 1010.2 |
| 20260505111543 | 18 | 291 | 1.6 | 11.3 | 0.00 | 0.00 | 0.00 | 52 | 1010.2 |
| 20260505111036 | 18 | 280 | 3.2 | 14.5 | 0.00 | 0.00 | 0.00 | 52 | 1010.1 |
| 20260505110535 | 18 | 270 | 11.3 | 14.5 | 0.00 | 0.00 | 0.00 | 52 | 1010.0 |
| 20260505102035 | 19 | 290 | 14.5 | 22.5 | 0.00 | 0.00 | 0.00 | 50 | 1010.5 |
| 20260505101550 | 19 | 261 | 14.5 | 22.5 | 0.00 | 0.00 | 0.00 | 50 | 1010.6 |
| 20260505101036 | 19 | 243 | 11.3 | 19.3 | 0.00 | 0.00 | 0.00 | 50 | 1010.6 |
| 20260505100538 | 19 | 265 | 11.3 | 19.3 | 0.00 | 0.00 | 0.00 | 51 | 1010.7 |
| 20260505100046 | 19 | 257 | 9.7 | 24.1 | 0.00 | 0.00 | 0.00 | 51 | 1010.7 |
| 20260505095538 | 19 | 271 | 16.1 | 24.1 | 0.00 | 0.00 | 0.00 | 51 | 1010.7 |
| 20260505095035 | 19 | 261 | 8.0 | 22.5 | 0.00 | 0.00 | 0.00 | 52 | 1010.9 |
| 20260505094547 | 20 | 281 | 12.9 | 25.7 | 0.00 | 0.00 | 0.00 | 52 | 1010.9 |
| 20260505094035 | 20 | 272 | 14.5 | 25.7 | 0.00 | 0.00 | 0.00 | 52 | 1010.9 |
| 20260505093538 | 20 | 280 | 16.1 | 24.1 | 0.00 | 0.00 | 0.00 | 52 | 1011.1 |
| 20260505093043 | 20 | 275 | 14.5 | 22.5 | 0.00 | 0.00 | 0.00 | 51 | 1011.0 |
| 20260505092539 | 20 | 270 | 16.1 | 25.7 | 0.00 | 0.00 | 0.00 | 50 | 1011.0 |
| 20260505092037 | 20 | 273 | 12.9 | 25.7 | 0.00 | 0.00 | 0.00 | 49 | 1011.1 |
| 20260505091549 | 20 | 292 | 16.1 | 24.1 | 0.00 | 0.00 | 0.00 | 48 | 1011.2 |
| 20260505091035 | 20 | 277 | 11.3 | 16.1 | 0.00 | 0.00 | 0.00 | 47 | 1011.2 |
| 20260505090535 | 20 | 286 | 11.3 | 19.3 | 0.00 | 0.00 | 0.00 | 46 | 1011.1 |
| 20260505090048 | 20 | 311 | 9.7 | 20.9 | 0.00 | 0.00 | 0.00 | 45 | 1011.1 |
| 20260505085536 | 20 | 279 | 12.9 | 24.1 | 0.00 | 0.00 | 0.00 | 45 | 1011.1 |
| 20260505085035 | 20 | 254 | 14.5 | 24.1 | 0.00 | 0.00 | 0.00 | 45 | 1011.0 |
| 20260505084553 | 20 | 247 | 16.1 | 22.5 | 0.00 | 0.00 | 0.00 | 44 | 1011.2 |
| 20260505084035 | 20 | 273 | 14.5 | 22.5 | 0.00 | 0.00 | 0.00 | 44 | 1011.3 |
| 20260505083535 | 20 | 250 | 11.3 | 19.3 | 0.00 | 0.00 | 0.00 | 44 | 1011.2 |
| 20260505083055 | 20 | 254 | 11.3 | 17.7 | 0.00 | 0.00 | 0.00 | 45 | 1011.3 |
| 20260505082536 | 20 | 252 | 11.3 | 19.3 | 0.00 | 0.00 | 0.00 | 45 | 1011.4 |
| 20260505082035 | 20 | 277 | 11.3 | 24.1 | 0.00 | 0.00 | 0.00 | 45 | 1011.5 |
| 20260505081555 | 20 | 275 | 14.5 | 24.1 | 0.00 | 0.00 | 0.00 | 44 | 1011.7 |
| 20260505081037 | 20 | 281 | 16.1 | 24.1 | 0.00 | 0.00 | 0.00 | 44 | 1011.6 |
| 20260505080535 | 20 | 273 | 16.1 | 22.5 | 0.00 | 0.00 | 0.00 | 44 | 1011.7 |
| 20260505080048 | 20 | 265 | 12.9 | 22.5 | 0.00 | 0.00 | 0.00 | 43 | 1011.6 |
| 20260505075535 | 20 | 259 | 14.5 | 22.5 | 0.00 | 0.00 | 0.00 | 43 | 1011.5 |
| 20260505075035 | 20 | 287 | 12.9 | 22.5 | 0.00 | 0.00 | 0.00 | 42 | 1011.4 |
| 20260505074549 | 20 | 273 | 14.5 | 22.5 | 0.00 | 0.00 | 0.00 | 41 | 1011.5 |
| 20260505074038 | 20 | 279 | 12.9 | 22.5 | 0.00 | 0.00 | 0.00 | 39 | 1011.5 |
| 20260505073535 | 21 | 275 | 9.7 | 17.7 | 0.00 | 0.00 | 0.00 | 39 | 1011.5 |
| 20260505073046 | 21 | 289 | 11.3 | 17.7 | 0.00 | 0.00 | 0.00 | 39 | 1011.4 |
| 20260505072538 | 21 | 288 | 9.7 | 17.7 | 0.00 | 0.00 | 0.00 | 38 | 1011.3 |
| 20260505072034 | 21 | 272 | 9.7 | 16.1 | 0.00 | 0.00 | 0.00 | 38 | 1011.4 |
| 20260505071549 | 21 | 257 | 9.7 | 22.5 | 0.00 | 0.00 | 0.00 | 38 | 1011.3 |
| 20260505071035 | 21 | 282 | 12.9 | 24.1 | 0.00 | 0.00 | 0.00 | 38 | 1011.2 |
| 20260505070536 | 21 | 291 | 16.1 | 24.1 | 0.00 | 0.00 | 0.00 | 38 | 1011.3 |
| 20260505070045 | 21 | 275 | 14.5 | 24.1 | 0.00 | 0.00 | 0.00 | 38 | 1011.2 |
| 20260505065536 | 21 | 268 | 16.1 | 25.7 | 0.00 | 0.00 | 0.00 | 38 | 1011.4 |
| 20260505065035 | 21 | 277 | 16.1 | 25.7 | 0.00 | 0.00 | 0.00 | 38 | 1011.3 |
| 20260505064546 | 21 | 281 | 17.7 | 22.5 | 0.00 | 0.00 | 0.00 | 38 | 1011.4 |
| 20260505064035 | 21 | 275 | 14.5 | 22.5 | 0.00 | 0.00 | 0.00 | 39 | 1011.3 |
| 20260505063535 | 21 | 279 | 12.9 | 22.5 | 0.00 | 0.00 | 0.00 | 39 | 1011.3 |
| 20260505063042 | 21 | 269 | 11.3 | 19.3 | 0.00 | 0.00 | 0.00 | 39 | 1011.4 |
| 20260505062538 | 22 | 273 | 9.7 | 14.5 | 0.00 | 0.00 | 0.00 | 38 | 1011.4 |
| 20260505062038 | 22 | 286 | 6.4 | 12.9 | 0.00 | 0.00 | 0.00 | 38 | 1011.4 |
| 20260505061550 | 22 | 265 | 4.8 | 14.5 | 0.00 | 0.00 | 0.00 | 38 | 1011.3 |
| 20260505061035 | 22 | 257 | 8.0 | 14.5 | 0.00 | 0.00 | 0.00 | 38 | 1011.2 |
| 20260505060536 | 22 | 257 | 8.0 | 17.7 | 0.00 | 0.00 | 0.00 | 38 | 1011.1 |
| 20260505060052 | 22 | 254 | 9.7 | 17.7 | 0.00 | 0.00 | 0.00 | 38 | 1011.0 |
| 20260505055536 | 22 | 261 | 4.8 | 11.3 | 0.00 | 0.00 | 0.00 | 39 | 1011.0 |
| 20260505055036 | 22 | 259 | 4.8 | 11.3 | 0.00 | 0.00 | 0.00 | 39 | 1011.0 |
| 20260505054556 | 22 | 286 | 4.8 | 16.1 | 0.00 | 0.00 | 0.00 | 40 | 1011.0 |
| 20260505054036 | 22 | 269 | 8.0 | 16.1 | 0.00 | 0.00 | 0.00 | 40 | 1011.0 |
| 20260505053537 | 22 | 275 | 6.4 | 14.5 | 0.00 | 0.00 | 0.00 | 40 | 1011.1 |
| 20260505053044 | 22 | 231 | 6.4 | 14.5 | 0.00 | 0.00 | 0.00 | 40 | 1011.1 |
| 20260505052536 | 22 | 250 | 8.0 | 16.1 | 0.00 | 0.00 | 0.00 | 41 | 1011.2 |
| 20260505052036 | 22 | 275 | 11.3 | 16.1 | 0.00 | 0.00 | 0.00 | 41 | 1011.1 |
| 20260505051544 | 22 | 273 | 6.4 | 16.1 | 0.00 | 0.00 | 0.00 | 41 | 1011.2 |
| 20260505051036 | 22 | 275 | 9.7 | 16.1 | 0.00 | 0.00 | 0.00 | 42 | 1011.2 |
| 20260505050536 | 22 | 286 | 11.3 | 16.1 | 0.00 | 0.00 | 0.00 | 41 | 1011.3 |
| 20260505041548 | 22 | 269 | 4.8 | 11.3 | 0.00 | 0.00 | 0.00 | 40 | 1011.4 |
| 20260505041037 | 22 | 246 | 4.8 | 11.3 | 0.00 | 0.00 | 0.00 | 40 | 1011.4 |
| 20260505040536 | 22 | 240 | 4.8 | 11.3 | 0.00 | 0.00 | 0.00 | 40 | 1011.3 |
| 20260505040044 | 22 | 244 | 4.8 | 12.9 | 0.00 | 0.00 | 0.00 | 40 | 1011.4 |
| 20260505035536 | 22 | 286 | 6.4 | 14.5 | 0.00 | 0.00 | 0.00 | 39 | 1011.4 |
| 20260505035036 | 22 | 286 | 8.0 | 14.5 | 0.00 | 0.00 | 0.00 | 39 | 1011.4 |
| 20260505034552 | 22 | 271 | 6.4 | 11.3 | 0.00 | 0.00 | 0.00 | 39 | 1011.4 |
| 20260505034035 | 22 | 280 | 6.4 | 11.3 | 0.00 | 0.00 | 0.00 | 38 | 1011.3 |
| 20260505033536 | 22 | 265 | 4.8 | 11.3 | 0.00 | 0.00 | 0.00 | 38 | 1011.2 |
| 20260505033046 | 23 | 284 | 6.4 | 11.3 | 0.00 | 0.00 | 0.00 | 37 | 1010.9 |
| 20260505032540 | 23 | 281 | 4.8 | 11.3 | 0.00 | 0.00 | 0.00 | 37 | 1010.8 |
| 20260505032035 | 23 | 261 | 4.8 | 16.1 | 0.00 | 0.00 | 0.00 | 37 | 1010.7 |
| 20260505031556 | 23 | 261 | 8.0 | 16.1 | 0.00 | 0.00 | 0.00 | 37 | 1010.8 |
| 20260505031036 | 23 | 279 | 8.0 | 12.9 | 0.00 | 0.00 | 0.00 | 37 | 1010.7 |
| 20260505030537 | 23 | 269 | 8.0 | 12.9 | 0.00 | 0.00 | 0.00 | 36 | 1010.6 |
| 20260505030100 | 23 | 269 | 6.4 | 14.5 | 0.00 | 0.00 | 0.00 | 36 | 1010.6 |
| 20260505025537 | 23 | 275 | 6.4 | 14.5 | 0.00 | 0.00 | 0.00 | 36 | 1010.6 |
| 20260505025036 | 23 | 275 | 9.7 | 14.5 | 0.00 | 0.00 | 0.00 | 35 | 1010.5 |
| 20260505024550 | 23 | 269 | 9.7 | 14.5 | 0.00 | 0.00 | 0.00 | 35 | 1010.4 |
| 20260505024035 | 23 | 269 | 11.3 | 14.5 | 0.00 | 0.00 | 0.00 | 35 | 1010.4 |
| 20260505023536 | 23 | 265 | 6.4 | 16.1 | 0.00 | 0.00 | 0.00 | 35 | 1010.4 |
| 20260505023047 | 23 | 292 | 8.0 | 16.1 | 0.00 | 0.00 | 0.00 | 35 | 1010.5 |
| 20260505022536 | 23 | 291 | 9.7 | 16.1 | 0.00 | 0.00 | 0.00 | 35 | 1010.6 |
| 20260505022035 | 23 | 275 | 11.3 | 16.1 | 0.00 | 0.00 | 0.00 | 35 | 1010.6 |
| 20260505021541 | 23 | 286 | 9.7 | 17.7 | 0.00 | 0.00 | 0.00 | 35 | 1010.6 |
| 20260505021035 | 23 | 275 | 11.3 | 19.3 | 0.00 | 0.00 | 0.00 | 35 | 1010.6 |
| 20260505020535 | 23 | 262 | 12.9 | 19.3 | 0.00 | 0.00 | 0.00 | 35 | 1010.4 |
| 20260505020050 | 23 | 281 | 12.9 | 17.7 | 0.00 | 0.00 | 0.00 | 36 | 1010.4 |
| 20260505015535 | 23 | 295 | 11.3 | 19.3 | 0.00 | 0.00 | 0.00 | 36 | 1010.4 |
| 20260505015035 | 23 | 277 | 14.5 | 19.3 | 0.00 | 0.00 | 0.00 | 36 | 1010.5 |
| 20260505014604 | 23 | 273 | 11.3 | 19.3 | 0.00 | 0.00 | 0.00 | 36 | 1010.4 |
| 20260505014037 | 23 | 273 | 14.5 | 19.3 | 0.00 | 0.00 | 0.00 | 35 | 1010.4 |
| 20260505013534 | 23 | 275 | 11.3 | 17.7 | 0.00 | 0.00 | 0.00 | 36 | 1010.4 |
| 20260505013051 | 23 | 265 | 11.3 | 19.3 | 0.00 | 0.00 | 0.00 | 35 | 1010.3 |
| 20260505012534 | 23 | 280 | 12.9 | 20.9 | 0.00 | 0.00 | 0.00 | 35 | 1010.3 |
| 20260505012036 | 23 | 261 | 12.9 | 20.9 | 0.00 | 0.00 | 0.00 | 35 | 1010.4 |
| 20260505011549 | 23 | 271 | 12.9 | 20.9 | 0.00 | 0.00 | 0.00 | 35 | 1010.5 |
| 20260505011035 | 23 | 275 | 11.3 | 22.5 | 0.00 | 0.00 | 0.00 | 37 | 1010.7 |
| 20260505010535 | 23 | 292 | 14.5 | 22.5 | 0.00 | 0.00 | 0.00 | 37 | 1010.4 |
| 20260505010041 | 23 | 263 | 14.5 | 22.5 | 0.00 | 0.00 | 0.00 | 37 | 1010.5 |
| 20260505005536 | 23 | 266 | 16.1 | 22.5 | 0.00 | 0.00 | 0.00 | 37 | 1010.4 |
| 20260505005035 | 23 | 262 | 14.5 | 20.9 | 0.00 | 0.00 | 0.00 | 38 | 1010.6 |
| 20260505004554 | 24 | 297 | 11.3 | 24.1 | 0.00 | 0.00 | 0.00 | 39 | 1010.6 |
| 20260505004034 | 24 | 298 | 12.9 | 24.1 | 0.00 | 0.00 | 0.00 | 38 | 1010.6 |
| 20260505003535 | 24 | 259 | 14.5 | 22.5 | 0.00 | 0.00 | 0.00 | 38 | 1010.5 |
| 20260505003044 | 24 | 286 | 14.5 | 22.5 | 0.00 | 0.00 | 0.00 | 38 | 1010.5 |
| 20260505002537 | 24 | 267 | 14.5 | 24.1 | 0.00 | 0.00 | 0.00 | 38 | 1010.6 |
| 20260505002035 | 24 | 268 | 19.3 | 25.7 | 0.00 | 0.00 | 0.00 | 38 | 1010.6 |
| 20260505001546 | 24 | 294 | 14.5 | 25.7 | 0.00 | 0.00 | 0.00 | 39 | 1010.7 |
| 20260505001035 | 24 | 269 | 14.5 | 22.5 | 0.00 | 0.00 | 0.00 | 39 | 1010.6 |
| 20260505000535 | 24 | 286 | 14.5 | 20.9 | 0.00 | 0.00 | 0.00 | 38 | 1010.9 |
| 20260505000057 | 24 | 247 | 11.3 | 20.9 | 0.00 | 0.00 | 0.00 | 38 | 1010.8 |
| 20260504235535 | 24 | 246 | 11.3 | 19.3 | 0.00 | 0.00 | 0.00 | 38 | 1010.9 |
| 20260504235035 | 24 | 265 | 9.7 | 19.3 | 0.00 | 0.00 | 0.00 | 38 | 1010.9 |
| 20260504234550 | 24 | 255 | 12.9 | 25.7 | 0.00 | 0.00 | 0.00 | 38 | 1010.9 |
| 20260504234036 | 24 | 241 | 14.5 | 25.7 | 0.00 | 0.00 | 0.00 | 38 | 1010.9 |
| 20260504233536 | 24 | 297 | 14.5 | 25.7 | 0.00 | 0.00 | 0.00 | 39 | 1010.9 |
| 20260504233046 | 24 | 291 | 9.7 | 25.7 | 0.00 | 0.00 | 0.00 | 38 | 1011.0 |
| 20260504232536 | 25 | 277 | 16.1 | 24.1 | 0.00 | 0.00 | 0.00 | 37 | 1011.0 |
| 20260504232035 | 25 | 267 | 16.1 | 24.1 | 0.00 | 0.00 | 0.00 | 37 | 1011.0 |
| 20260504231544 | 25 | 225 | 9.7 | 29.0 | 0.00 | 0.00 | 0.00 | 37 | 1011.0 |
| 20260504231035 | 24 | 280 | 14.5 | 29.0 | 0.00 | 0.00 | 0.00 | 37 | 1010.9 |
| 20260504230535 | 24 | 259 | 16.1 | 25.7 | 0.00 | 0.00 | 0.00 | 39 | 1011.1 |
| 20260504230049 | 24 | 321 | 12.9 | 27.4 | 0.00 | 0.00 | 0.00 | 38 | 1011.0 |
| 20260504225535 | 24 | 277 | 16.1 | 27.4 | 0.00 | 0.00 | 0.00 | 38 | 1011.0 |
| 20260504225039 | 24 | 273 | 19.3 | 27.4 | 0.00 | 0.00 | 0.00 | 37 | 1011.0 |
| 20260504224547 | 24 | 257 | 16.1 | 24.1 | 0.00 | 0.00 | 0.00 | 37 | 1011.0 |
| 20260504224036 | 24 | 250 | 14.5 | 24.1 | 0.00 | 0.00 | 0.00 | 37 | 1011.1 |
| 20260504223535 | 24 | 293 | 12.9 | 25.7 | 0.00 | 0.00 | 0.00 | 38 | 1011.1 |
| 20260504223047 | 24 | 293 | 14.5 | 25.7 | 0.00 | 0.00 | 0.00 | 38 | 1011.2 |
| 20260504222538 | 24 | 267 | 14.5 | 27.4 | 0.00 | 0.00 | 0.00 | 38 | 1011.3 |
| 20260504222117 | 24 | 270 | 19.3 | 27.4 | 0.00 | 0.00 | 0.00 | 38 | 1011.3 |
| 20260504222035 | 24 | 270 | 19.3 | 27.4 | 0.00 | 0.00 | 0.00 | 38 | 1011.3 |
| 20260504221546 | 24 | 271 | 16.1 | 25.7 | 0.00 | 0.00 | 0.00 | 38 | 1011.3 |
| 20260504221036 | 24 | 267 | 11.3 | 25.7 | 0.00 | 0.00 | 0.00 | 37 | 1011.3 |
| 20260504220536 | 24 | 288 | 16.1 | 25.7 | 0.00 | 0.00 | 0.00 | 39 | 1011.4 |
| 20260504220045 | 24 | 272 | 19.3 | 29.0 | 0.00 | 0.00 | 0.00 | 38 | 1011.4 |
| 20260504215535 | 24 | 293 | 16.1 | 32.2 | 0.00 | 0.00 | 0.00 | 40 | 1011.5 |
| 20260504215035 | 24 | 288 | 16.1 | 32.2 | 0.00 | 0.00 | 0.00 | 39 | 1011.7 |
| 20260504214552 | 24 | 284 | 14.5 | 22.5 | 0.00 | 0.00 | 0.00 | 40 | 1011.7 |
| 20260504214038 | 24 | 268 | 14.5 | 30.6 | 0.00 | 0.00 | 0.00 | 39 | 1011.8 |
| 20260504213535 | 23 | 279 | 19.3 | 30.6 | 0.00 | 0.00 | 0.00 | 40 | 1011.9 |
| 20260504213039 | 23 | 259 | 9.7 | 30.6 | 0.00 | 0.00 | 0.00 | 40 | 1011.8 |
| 20260504212536 | 23 | 279 | 16.1 | 30.6 | 0.00 | 0.00 | 0.00 | 40 | 1012.1 |
| 20260504212037 | 23 | 242 | 16.1 | 25.7 | 0.00 | 0.00 | 0.00 | 41 | 1012.1 |
| 20260504211547 | 23 | 291 | 17.7 | 30.6 | 0.00 | 0.00 | 0.00 | 40 | 1012.2 |
| 20260504211035 | 23 | 267 | 17.7 | 30.6 | 0.00 | 0.00 | 0.00 | 40 | 1012.3 |
| 20260504210538 | 23 | 236 | 14.5 | 29.0 | 0.00 | 0.00 | 0.00 | 40 | 1012.2 |
| 20260504210057 | 23 | 271 | 17.7 | 29.0 | 0.00 | 0.00 | 0.00 | 40 | 1012.3 |
| 20260504205536 | 23 | 273 | 19.3 | 29.0 | 0.00 | 0.00 | 0.00 | 40 | 1012.2 |
| 20260504205035 | 23 | 231 | 12.9 | 32.2 | 0.00 | 0.00 | 0.00 | 41 | 1012.3 |
| 20260504204558 | 23 | 266 | 17.7 | 32.2 | 0.00 | 0.00 | 0.00 | 41 | 1012.4 |
| 20260504204035 | 23 | 262 | 17.7 | 29.0 | 0.00 | 0.00 | 0.00 | 42 | 1012.5 |
| 20260504203535 | 23 | 275 | 14.5 | 29.0 | 0.00 | 0.00 | 0.00 | 42 | 1012.6 |
| 20260504203049 | 23 | 275 | 16.1 | 25.7 | 0.00 | 0.00 | 0.00 | 42 | 1012.7 |
| 20260504202535 | 23 | 287 | 17.7 | 25.7 | 0.00 | 0.00 | 0.00 | 41 | 1012.8 |
| 20260504202036 | 23 | 254 | 14.5 | 29.0 | 0.00 | 0.00 | 0.00 | 41 | 1012.7 |
| 20260504201547 | 23 | 273 | 14.5 | 29.0 | 0.00 | 0.00 | 0.00 | 42 | 1012.7 |
| 20260504201036 | 22 | 275 | 19.3 | 27.4 | 0.00 | 0.00 | 0.00 | 42 | 1013.0 |
| 20260504200536 | 22 | 298 | 14.5 | 24.1 | 0.00 | 0.00 | 0.00 | 41 | 1012.9 |
| 20260504200047 | 22 | 296 | 11.3 | 24.1 | 0.00 | 0.00 | 0.00 | 42 | 1012.8 |
| 20260504195535 | 22 | 261 | 12.9 | 25.7 | 0.00 | 0.00 | 0.00 | 42 | 1013.1 |
| 20260504195035 | 22 | 295 | 17.7 | 27.4 | 0.00 | 0.00 | 0.00 | 40 | 1012.9 |
| 20260504194545 | 22 | 265 | 17.7 | 27.4 | 0.00 | 0.00 | 0.00 | 41 | 1013.1 |
| 20260504194036 | 22 | 270 | 12.9 | 24.1 | 0.00 | 0.00 | 0.00 | 40 | 1012.7 |
| 20260504193538 | 22 | 286 | 16.1 | 27.4 | 0.00 | 0.00 | 0.00 | 40 | 1012.7 |
| 20260504193044 | 22 | 280 | 19.3 | 27.4 | 0.00 | 0.00 | 0.00 | 39 | 1013.0 |
| 20260504192536 | 22 | 257 | 14.5 | 25.7 | 0.00 | 0.00 | 0.00 | 40 | 1012.7 |
| 20260504192036 | 22 | 271 | 16.1 | 25.7 | 0.00 | 0.00 | 0.00 | 41 | 1012.4 |
| 20260504191542 | 22 | 267 | 14.5 | 20.9 | 0.00 | 0.00 | 0.00 | 41 | 1012.7 |
| 20260504191036 | 22 | 277 | 14.5 | 22.5 | 0.00 | 0.00 | 0.00 | 41 | 1012.5 |
| 20260504190535 | 22 | 250 | 12.9 | 25.7 | 0.00 | 0.00 | 0.00 | 41 | 1012.4 |
| 20260504190052 | 22 | 262 | 16.1 | 25.7 | 0.00 | 0.00 | 0.00 | 41 | 1012.3 |
| 20260504185534 | 21 | 288 | 17.7 | 25.7 | 0.00 | 0.00 | 0.00 | 42 | 1012.6 |
| 20260504185040 | 22 | 307 | 17.7 | 29.0 | 0.00 | 0.00 | 0.00 | 42 | 1012.7 |
| 20260504184546 | 21 | 284 | 19.3 | 30.6 | 0.00 | 0.00 | 0.00 | 43 | 1012.9 |
| 20260504184036 | 21 | 291 | 22.5 | 30.6 | 0.00 | 0.00 | 0.00 | 43 | 1012.7 |
| 20260504183536 | 22 | 295 | 22.5 | 32.2 | 0.00 | 0.00 | 0.00 | 42 | 1012.7 |
| 20260504183045 | 22 | 292 | 19.3 | 32.2 | 0.00 | 0.00 | 0.00 | 44 | 1012.7 |
| 20260504182535 | 22 | 275 | 14.5 | 22.5 | 0.00 | 0.00 | 0.00 | 45 | 1012.7 |
| 20260504182037 | 22 | 262 | 14.5 | 25.7 | 0.00 | 0.00 | 0.00 | 45 | 1012.7 |
| 20260504181543 | 22 | 268 | 19.3 | 25.7 | 0.00 | 0.00 | 0.00 | 46 | 1013.0 |
| 20260504181035 | 22 | 271 | 14.5 | 22.5 | 0.00 | 0.00 | 0.00 | 46 | 1013.0 |
| 20260504180536 | 21 | 261 | 14.5 | 27.4 | 0.00 | 0.00 | 0.00 | 46 | 1013.0 |
| 20260504180106 | 21 | 280 | 14.5 | 27.4 | 0.00 | 0.00 | 0.00 | 46 | 1013.1 |
| 20260504175536 | 21 | 277 | 17.7 | 29.0 | 0.00 | 0.00 | 0.00 | 47 | 1013.2 |
| 20260504175035 | 21 | 291 | 22.5 | 29.0 | 0.00 | 0.00 | 0.00 | 47 | 1013.1 |
| 20260504174547 | 21 | 302 | 22.5 | 35.4 | 0.00 | 0.00 | 0.00 | 48 | 1013.1 |
| 20260504174035 | 21 | 267 | 27.4 | 35.4 | 0.00 | 0.00 | 0.00 | 48 | 1013.0 |
| 20260504173535 | 21 | 297 | 20.9 | 32.2 | 0.00 | 0.00 | 0.00 | 47 | 1013.0 |
| 20260504173058 | 21 | 275 | 22.5 | 32.2 | 0.00 | 0.00 | 0.00 | 47 | 1012.9 |
| 20260504172534 | 21 | 275 | 22.5 | 32.2 | 0.00 | 0.00 | 0.00 | 47 | 1012.9 |
| 20260504172034 | 21 | 292 | 19.3 | 27.4 | 0.00 | 0.00 | 0.00 | 49 | 1012.5 |
| 20260504171546 | 21 | 300 | 16.1 | 27.4 | 0.00 | 0.00 | 0.00 | 49 | 1012.2 |
| 20260504171036 | 21 | 275 | 16.1 | 27.4 | 0.00 | 0.00 | 0.00 | 49 | 1012.0 |
| 20260504170536 | 21 | 254 | 14.5 | 27.4 | 0.00 | 0.00 | 0.00 | 50 | 1012.0 |
| 20260504151035 | 20 | 272 | 19.3 | 29.0 | 0.00 | 0.00 | 0.00 | 54 | 1012.0 |
| 20260504150537 | 20 | 279 | 19.3 | 27.4 | 0.00 | 0.00 | 0.00 | 53 | 1012.0 |
| 20260504141035 | 21 | 291 | 16.1 | 20.9 | 0.00 | 0.00 | 0.00 | 48 | 1011.2 |
| 20260504140535 | 21 | 286 | 16.1 | 20.9 | 0.00 | 0.00 | 0.00 | 48 | 1011.2 |
| 20260504130536 | 21 | 259 | 11.3 | 14.5 | 0.00 | 0.00 | 0.00 | 44 | 1011.1 |